Weather History for KCEU - February, 2014

Change the Weather History Date:

Saturday, February 8, 2014

  Actual Average Record
Temperature  
Mean Temperature 50 °F -  
Max Temperature 60 °F 54 °F 76 °F (1932)
Min Temperature 39 °F 29 °F 14 °F (1951)
Degree Days  
Heating Degree Days 16    
Moisture  
Dew Point 31 °F    
Average Humidity 56    
Maximum Humidity 79    
Minimum Humidity 28    
Precipitation  
Precipitation 0.00 in - - ()
Sea Level Pressure  
Sea Level Pressure 30.16 in    
Wind  
Wind Speed 2 mph (West)    
Max Wind Speed 12 mph    
Max Gust Speed 18 mph    
Visibility 10 miles    
Events      
Averages and records for this station are not official NWS values.
T = Trace of Precipitation, MM = Missing Value Source: NWS Daily Summary

Daily Weather History Graph

Daily Weather History Graph

Search for Another Location

Airport or City:

Trip Planner

Search our weather history database for the weather conditions in past years. The results will help you decide how hot, cold, wet, or windy it might be!

Date:

Astronomy

Feb. 08, 2014 Rise Set
Actual Time 7:23 AM EST 6:07 PM EST
Civil Twilight 6:57 AM EST 6:34 PM EST
Nautical Twilight 6:28 AM EST 7:03 PM EST
Astronomical Twilight 5:58 AM EST 7:33 PM EST
Moon 1:04 PM EST (2/8) 2:32 AM EST (2/8)
Length of Visible Light 11h 36m
Length of Day
10h 44m
Waxing Gibbous, 68% of the Moon is Illuminated
Feb 8
Waxing Gibbous
Feb 14
Full
Feb 22
Last Quarter
Mar 1
New
Mar 8
First Quarter

Hourly Weather History & Observations

Time (EST) Temp. Windchill Dew Point Humidity Pressure Visibility Wind Dir Wind Speed Gust Speed Precip Events Conditions
12:54 AM 41.0 °F - 34.0 °F 76% 30.23 in 10.0 mi Calm Calm - N/A   Clear
1:54 AM 42.1 °F - 32.0 °F 67% 30.22 in 10.0 mi Calm Calm - N/A   Scattered Clouds
2:54 AM 39.9 °F - 33.1 °F 77% 30.22 in 10.0 mi Calm Calm - N/A   Mostly Cloudy
3:54 AM 39.9 °F - 33.1 °F 77% 30.20 in 10.0 mi Calm Calm - N/A   Mostly Cloudy
4:54 AM 39.0 °F - 33.1 °F 79% 30.19 in 9.0 mi Calm Calm - N/A   Clear
5:54 AM 39.0 °F - 33.1 °F 79% 30.19 in 10.0 mi Calm Calm - N/A   Mostly Cloudy
6:54 AM 39.0 °F 35.7 °F 32.0 °F 76% 30.18 in 9.0 mi NNW 4.6 mph - N/A   Overcast
7:54 AM 39.9 °F - 33.1 °F 77% 30.20 in 9.0 mi Calm Calm - N/A   Scattered Clouds
8:54 AM 41.0 °F - 33.1 °F 73% 30.22 in 9.0 mi Calm Calm - N/A   Mostly Cloudy
9:54 AM 44.1 °F - 34.0 °F 68% 30.25 in 10.0 mi Calm Calm - N/A   Overcast
10:54 AM 48.0 °F - 28.9 °F 48% 30.24 in 9.0 mi Variable 3.5 mph - N/A   Overcast
11:54 AM 51.1 °F - 28.0 °F 41% 30.21 in 10.0 mi WSW 3.5 mph - N/A   Overcast
12:54 PM 55.0 °F - 28.0 °F 35% 30.16 in 10.0 mi Calm Calm - N/A   Scattered Clouds
1:54 PM 57.9 °F - 27.0 °F 31% 30.12 in 10.0 mi West 8.1 mph - N/A   Clear
2:54 PM 59.0 °F - 27.0 °F 29% 30.10 in 10.0 mi WSW 11.5 mph 17.3 mph N/A   Clear
3:54 PM 60.1 °F - 27.0 °F 28% 30.08 in 10.0 mi West 10.4 mph 18.4 mph N/A   Clear
4:54 PM 60.1 °F - 28.0 °F 30% 30.08 in 10.0 mi Variable 4.6 mph - N/A   Partly Cloudy
5:54 PM 57.9 °F - 28.9 °F 33% 30.09 in 10.0 mi WSW 6.9 mph - N/A   Clear
6:54 PM 53.1 °F - 30.0 °F 41% 30.11 in 10.0 mi West 6.9 mph - N/A   Clear
7:54 PM 50.0 °F - 32.0 °F 50% 30.11 in 10.0 mi West 6.9 mph - N/A   Clear
8:54 PM 48.9 °F - 32.0 °F 52% 30.12 in 10.0 mi West 3.5 mph - N/A   Clear
9:54 PM 46.9 °F - 32.0 °F 56% 30.13 in 10.0 mi West 6.9 mph - N/A   Clear
10:54 PM 46.0 °F 43.1 °F 32.0 °F 58% 30.14 in 10.0 mi West 5.8 mph - N/A   Clear
11:54 PM 44.1 °F 40.8 °F 32.0 °F 63% 30.14 in 10.0 mi West 5.8 mph - N/A   Clear